[[[{"header":{"parameterUnit":"kt","parameterCategory":2,"dx":1,"dy":1,"la1":30.253999710083008,"la2":30.299108505249023,"lo1":-89.0895004272461,"lo2":-89.04439544677734,"nx":28,"ny":28,"refTime":"2022-10-02T21:00:00:Z","depth":0,"parameterNumber":1,"parameterNumberName":"U-component_of_WINDS"},"data":[-1.7032,-1.7156,-1.7174,-1.7324,-1.7365,-1.7471,-1.7515,-1.7574,-1.7625,-1.7754,-1.7832,-1.7863,-1.7923,-1.802,-1.8106,-1.8118,-1.8155,-1.8184,-1.8195,-1.8042,-1.8023,-1.8004,-1.7977,-1.8191,-1.8191,-1.8352,-1.8353,-1.8354,-1.6916,-1.6958,-1.7043,-1.7137,-1.721,-1.7191,-1.7265,-1.7328,-1.7424,-1.7488,-1.7565,-1.7681,-1.7775,-1.7825,-1.7919,-1.7979,-1.7977,-1.8003,-1.8001,-1.8011,-1.7848,-1.7819,-1.8003,-1.8003,-1.8003,-1.8003,-1.8003,-1.8003,-1.6712,-1.6785,-1.6853,-1.6945,-1.6997,-1.7061,-1.7135,-1.7171,-1.7255,-1.7355,-1.7361,-1.747,-1.7539,-1.7662,-1.7708,-1.7794,-1.7769,-1.7805,-1.7815,-1.7824,-1.7833,-1.7602,-1.7811,-1.781,-1.781,-1.7809,-1.7809,0,-1.6569,-1.6579,-1.6661,-1.6749,-1.6818,-1.6888,-1.6956,-1.7002,-1.7031,-1.71,-1.72,-1.7261,-1.7382,-1.748,-1.7572,-1.7614,-1.7606,-1.7606,-1.7631,-1.7633,-1.762,-1.7631,-1.7367,-1.7601,-1.76,-1.7598,-1.7597,-1.7597,-1.6366,-1.6449,-1.653,-1.6585,-1.6627,-1.6716,-1.6774,-1.6794,-1.6854,-1.6941,-1.7006,-1.7103,-1.7183,-1.7341,-1.7386,-1.7477,-1.7475,-1.7563,-1.7489,-1.7485,-1.7481,-1.7477,-1.7487,-1.7578,-1.7581,-1.7583,-1.7584,0,-1.6251,-1.6281,-1.6417,-1.6488,-1.6509,-1.6595,-1.6658,-1.6732,-1.6761,-1.6868,-1.6894,-1.694,-1.7039,-1.707,-1.719,-1.7203,-1.7349,-1.7342,-1.7325,-1.7327,-1.741,-1.7403,-1.7672,-1.771,-1.7484,-1.7486,-1.7487,0,-1.6093,-1.6201,-1.624,-1.6318,-1.6439,-1.6456,-1.6576,-1.6613,-1.6673,-1.6758,-1.6751,-1.6831,-1.6858,-1.6942,-1.6963,-1.7086,-1.7108,-1.7127,-1.7132,-1.713,-1.7129,-1.7167,-1.7158,-1.7136,-1.7134,-1.7133,-1.7132,0,-1.5913,-1.606,-1.6185,-1.6224,-1.6313,-1.6371,-1.6411,-1.6478,-1.6535,-1.6613,-1.6651,-1.674,-1.6791,-1.6861,-1.6887,-1.6836,-1.7038,-1.6973,-1.7058,-1.7058,-1.7105,-1.7102,-1.7328,-1.713,-1.713,-1.713,-1.7129,0,-1.5791,-1.5869,-1.6044,-1.6118,-1.6156,-1.6238,-1.6328,-1.6406,-1.6478,-1.6496,-1.6558,-1.6559,-1.6668,-1.6602,-1.6753,-1.668,-1.673,-1.6758,-1.6764,-1.678,-1.6707,-1.6835,-1.7043,-1.7068,-1.6788,-1.6786,-1.6783,0,-1.5578,-1.5763,-1.578,-1.5946,-1.6037,-1.6024,-1.6116,-1.618,-1.6211,-1.6293,-1.6328,-1.6422,-1.6379,-1.6414,-1.6483,-1.6525,-1.662,-1.6512,-1.6634,-1.6639,-1.6619,-1.681,-1.6836,-1.6993,-1.6747,-1.6751,-1.6754,0,-1.5417,-1.5524,-1.5553,-1.5599,-1.5686,-1.5762,-1.5866,-1.5963,-1.6016,-1.6088,-1.6179,-1.631,-1.6284,-1.6341,-1.6352,-1.6423,-1.6556,-1.6387,-1.6389,-1.6419,-1.6731,-1.6754,-1.6781,-1.6548,-1.6552,-1.6556,-1.6725,0,-1.5232,-1.5328,-1.5406,-1.5507,-1.557,-1.5676,-1.5709,-1.5771,-1.5775,-1.5807,-1.5939,-1.6001,-1.6102,-1.6138,-1.6144,-1.6297,-1.6278,-1.6249,-1.6192,-1.6315,-1.6372,-1.6395,-1.6103,-1.6102,-1.61,-1.6099,0,0,-1.5022,-1.5161,-1.5178,-1.5281,-1.5335,-1.5323,-1.5433,-1.5485,-1.5591,-1.563,-1.5596,-1.5792,-1.5845,-1.6002,-1.6043,-1.6083,-1.6115,-1.6071,-1.6255,-1.6272,-1.6288,-1.6349,-1.6372,-1.6097,-1.6097,-1.6096,-1.6096,0,-1.4963,-1.5013,-1.5122,-1.5176,-1.5256,-1.5285,-1.531,-1.5389,-1.5415,-1.5544,-1.5534,-1.5618,-1.5774,-1.5832,-1.5882,-1.6051,-1.6041,-1.6078,-1.6159,-1.6241,-1.626,-1.6277,-1.6339,-1.6361,-1.6093,-1.6093,-1.6093,0,-1.4813,-1.487,-1.4925,-1.5048,-1.5102,-1.5195,-1.5141,-1.5242,-1.5312,-1.5296,-1.5425,-1.5465,-1.5545,-1.5689,-1.5754,-1.5727,-1.5972,-1.5901,-1.591,-1.5919,-1.6001,-1.6023,-1.6043,-1.5779,-1.5777,-1.5776,0,0,-1.4757,-1.4847,-1.4916,-1.5038,-1.5072,-1.5116,-1.5169,-1.518,-1.5251,-1.528,-1.5332,-1.5403,-1.5494,-1.5554,-1.5642,-1.5793,-1.5813,-1.586,-1.5875,-1.5887,-1.5903,-1.5988,-1.601,-1.5772,-1.5772,-1.5771,0,0,-1.4732,-1.4816,-1.4807,-1.4953,-1.5021,-1.5099,-1.5173,-1.5165,-1.5247,-1.5239,-1.5263,-1.5283,-1.5417,-1.5458,-1.5391,-1.5622,-1.5563,-1.558,-1.5592,-1.5611,-1.5626,-1.5615,-1.5347,0,0,0,0,0,-1.4689,-1.4805,-1.4796,-1.4826,-1.4982,-1.5102,-1.5123,-1.5145,-1.5102,-1.516,-1.5202,-1.5188,-1.5427,-1.5368,-1.5398,-1.5474,-1.5711,-1.5722,-1.5732,-1.5783,-1.5802,-1.5819,0,0,0,0,0,0,-1.4701,-1.4737,-1.4793,-1.4875,-1.4911,-1.5099,-1.5032,-1.5041,-1.5097,-1.5092,-1.518,-1.519,-1.5212,-1.5354,-1.5381,-1.5453,-1.5339,-1.5716,-1.5725,-1.5733,-1.5789,-1.5806,-1.5819,0,0,0,0,0,-1.471,-1.4739,-1.4984,-1.4874,-1.4905,-1.4961,-1.5028,-1.5035,-1.5079,-1.5145,-1.5155,-1.509,-1.5214,-1.5238,-1.537,-1.544,-1.532,-1.533,-1.5721,-1.5729,-1.5735,-1.5797,0,0,0,0,0,0,-1.4717,-1.4747,-1.4991,-1.5001,-1.4832,-1.4951,-1.497,-1.503,-1.5128,-1.5139,-1.5055,-1.5051,-1.5216,-1.5234,-1.5253,-1.5434,-1.5305,-1.5316,-1.5322,-1.5727,-1.5732,-1.5737,0,0,0,0,0,0,-1.4732,-1.4756,-1.4996,-1.4942,-1.4946,-1.4942,-1.4959,-1.5075,-1.513,-1.5034,-1.5032,-1.5052,-1.5189,-1.5232,-1.5247,-1.5427,-1.5294,-1.5304,-1.531,-1.5314,-1.5731,-1.5736,0,0,0,0,0,0,-1.4742,-1.4763,-1.4939,-1.4943,-1.4946,-1.5063,-1.5045,-1.5205,-1.5081,-1.5029,-1.5071,-1.5066,-1.5188,-1.5202,-1.5243,-1.5417,-1.5424,-1.5294,-1.5301,-1.5306,-1.5309,0,0,0,0,0,0,0,-1.4751,-1.4606,-1.493,-1.4943,-1.4946,-1.5096,-1.5098,-1.5101,-1.508,-1.5076,-1.5072,-1.5068,-1.524,-1.525,-1.5261,-1.5409,0,0,-1.5293,-1.5298,0,0,0,0,0,0,0,0,-1.4598,-1.4604,-1.493,-1.4933,-1.4935,-1.5096,-1.5098,-1.5101,-1.5079,-1.5076,-1.5073,-1.507,-1.5242,-1.5251,-1.5259,0,0,0,0,0,0,0,0,0,0,0,0,0,0,0,-1.4931,-1.4932,0,-1.5096,-1.5098,-1.51,-1.5079,-1.5076,-1.5073,-1.5071,-1.5245,-1.5252,-1.5259,0,0,0,0,0,0,0,0,0,0,0,0,0,0,0,0,0,0,0,0,0,0,0,0,0,0,0,0,0,0,0,0,0,0,0,0,0,0,0,0,0,0,0,0,0,0,0,0,0,0,0,0,0,0,0,0,0,0,0,0,0,0,0,0,0,0,0,0,0]}],[{"header":{"parameterUnit":"kt","parameterCategory":2,"dx":1,"dy":1,"la1":30.253999710083008,"la2":30.299108505249023,"lo1":-89.0895004272461,"lo2":-89.04439544677734,"nx":28,"ny":28,"refTime":"2022-10-02T21:00:00:Z","depth":0,"parameterNumber":2,"parameterNumberName":"V-component_of_WINDS"},"data":[-9.3438,-9.3654,-9.3675,-9.393,-9.3991,-9.4168,-9.4237,-9.4328,-9.4404,-9.4615,-9.4738,-9.4778,-9.4859,-9.5009,-9.5142,-9.5155,-9.521,-9.5273,-9.5278,-9.4983,-9.4944,-9.4906,-9.4857,-9.5285,-9.5285,-9.5581,-9.5584,-9.5586,-9.3222,-9.3286,-9.3427,-9.3577,-9.3697,-9.365,-9.3764,-9.3867,-9.4025,-9.412,-9.4243,-9.4428,-9.4575,-9.4636,-9.478,-9.4878,-9.4862,-9.4915,-9.4909,-9.4922,-9.4607,-9.4556,-9.4926,-9.4926,-9.4926,-9.4926,-9.4926,-9.4926,-9.2834,-9.2963,-9.3066,-9.3218,-9.3299,-9.3398,-9.3523,-9.357,-9.3705,-9.3861,-9.3855,-9.4033,-9.4129,-9.431,-9.4374,-9.4511,-9.4455,-9.4518,-9.4534,-9.455,-9.4566,-9.4138,-9.4536,-9.4535,-9.4534,-9.4533,-9.4532,0,-9.2556,-9.2565,-9.2701,-9.2844,-9.2956,-9.3067,-9.3171,-9.3249,-9.3269,-9.3379,-9.3541,-9.3636,-9.3823,-9.3975,-9.4112,-9.4165,-9.4124,-9.4121,-9.4165,-9.4171,-9.416,-9.4169,-9.3657,-9.4109,-9.4105,-9.4103,-9.4101,-9.4099,-9.2167,-9.2314,-9.243,-9.2523,-9.2585,-9.2734,-9.2826,-9.2832,-9.2929,-9.3057,-9.3168,-9.332,-9.3443,-9.3694,-9.3742,-9.388,-9.3861,-9.4032,-9.3881,-9.3882,-9.3865,-9.3857,-9.3872,-9.4062,-9.4066,-9.407,-9.4074,0,-9.1946,-9.1978,-9.2211,-9.231,-9.2339,-9.2492,-9.2575,-9.2702,-9.2731,-9.2909,-9.2951,-9.2997,-9.3153,-9.3174,-9.3355,-9.336,-9.3609,-9.3586,-9.3576,-9.3573,-9.3729,-9.3715,-9.423,-9.4298,-9.3854,-9.3858,-9.3862,0,-9.1626,-9.1818,-9.1853,-9.1987,-9.22,-9.2201,-9.2411,-9.2457,-9.2541,-9.2681,-9.2638,-9.277,-9.2775,-9.2909,-9.2918,-9.3124,-9.3157,-9.3174,-9.3174,-9.3179,-9.3177,-9.3229,-9.3209,-9.3167,-9.3164,-9.3162,-9.316,0,-9.1278,-9.152,-9.1737,-9.1797,-9.1921,-9.2022,-9.2077,-9.217,-9.226,-9.2378,-9.2435,-9.2572,-9.2647,-9.2752,-9.2762,-9.2659,-9.3014,-9.2875,-9.3031,-9.3031,-9.3109,-9.3104,-9.3555,-9.3157,-9.3156,-9.3155,-9.3154,0,-9.1024,-9.1147,-9.1456,-9.1558,-9.1621,-9.1763,-9.19,-9.2026,-9.2126,-9.2142,-9.2234,-9.2207,-9.2389,-9.2249,-9.2499,-9.2362,-9.2438,-9.247,-9.2481,-9.2499,-9.2342,-9.2595,-9.3022,-9.3068,-9.2515,-9.251,-9.2505,0,-9.0617,-9.0937,-9.0941,-9.1234,-9.1385,-9.1328,-9.1485,-9.1575,-9.1609,-9.174,-9.1774,-9.1922,-9.1823,-9.1871,-9.1992,-9.2034,-9.2211,-9.201,-9.2196,-9.2203,-9.2173,-9.2566,-9.2625,-9.2927,-9.2437,-9.2444,-9.2449,0,-9.0305,-9.0455,-9.0507,-9.0575,-9.0697,-9.0822,-9.1002,-9.115,-9.1237,-9.1342,-9.1493,-9.17,-9.1633,-9.1714,-9.1706,-9.183,-9.2091,-9.1741,-9.1743,-9.1804,-9.2404,-9.246,-9.251,-9.2058,-9.2066,-9.2072,-9.2396,0,-8.9916,-9.0079,-9.0221,-9.0372,-9.0472,-9.0656,-9.068,-9.0781,-9.0764,-9.0795,-9.1015,-9.1092,-9.124,-9.1302,-9.1286,-9.1565,-9.1521,-9.1448,-9.1313,-9.157,-9.1677,-9.1721,-9.1152,-9.1148,-9.1145,-9.1142,0,0,-8.9519,-8.9753,-8.9751,-8.9927,-9.0011,-8.9949,-9.0143,-9.0217,-9.0367,-9.0426,-9.0351,-9.0655,-9.072,-9.0985,-9.1067,-9.1126,-9.1178,-9.1086,-9.1447,-9.1481,-9.1513,-9.1627,-9.1672,-9.1136,-9.1135,-9.1134,-9.1133,0,-8.9382,-8.9455,-8.9648,-8.9725,-8.9839,-8.9863,-8.9909,-9.001,-9.0038,-9.0254,-9.0197,-9.0331,-9.0573,-9.0651,-9.0722,-9.1055,-9.1004,-9.1098,-9.1272,-9.1414,-9.1452,-9.1486,-9.1606,-9.1649,-9.1125,-9.1125,-9.1126,0,-8.908,-8.9156,-8.9251,-8.944,-8.9513,-8.9668,-8.9534,-8.9703,-8.9817,-8.9736,-8.9951,-8.9997,-9.0102,-9.0349,-9.046,-9.0394,-9.0845,-9.0705,-9.0726,-9.0739,-9.0878,-9.0924,-9.0965,-9.0425,-9.0422,-9.042,0,0,-8.8958,-8.911,-8.9191,-8.9412,-8.9462,-8.95,-8.9584,-8.9576,-8.9673,-8.9712,-8.977,-8.9864,-9.0005,-9.0097,-9.0229,-9.0497,-9.0518,-9.0618,-9.0651,-9.0678,-9.0706,-9.0851,-9.0897,-9.0411,-9.041,-9.041,0,0,-8.8899,-8.9003,-8.897,-8.9229,-8.9325,-8.9418,-8.9552,-8.9512,-8.9634,-8.9615,-8.9606,-8.9631,-8.9862,-8.9908,-8.9779,-9.0181,-9.0048,-9.0079,-9.0143,-9.0185,-9.0218,-9.0202,-8.965,0,0,0,0,0,-8.8771,-8.899,-8.8959,-8.9006,-8.9243,-8.9436,-8.9466,-8.9466,-8.9372,-8.9478,-8.9519,-8.9458,-8.9837,-8.9722,-8.9768,-8.9912,-9.0288,-9.031,-9.033,-9.0476,-9.052,-9.0557,0,0,0,0,0,0,-8.879,-8.8847,-8.8953,-8.9056,-8.9109,-8.9428,-8.9269,-8.9275,-8.9361,-8.9346,-8.9452,-8.9461,-8.9463,-8.9699,-8.974,-8.9877,-8.9636,-9.0297,-9.0315,-9.0332,-9.0491,-9.0527,-9.0558,0,0,0,0,0,-8.8804,-8.8851,-8.923,-8.9052,-8.9099,-8.9151,-8.9261,-8.9265,-8.933,-8.9395,-8.9402,-8.9323,-8.9467,-8.9501,-8.9723,-8.9858,-8.9607,-8.9623,-9.0309,-9.0323,-9.0336,-9.0509,0,0,0,0,0,0,-8.8815,-8.8855,-8.924,-8.9254,-8.897,-8.9133,-8.9158,-8.9256,-8.9373,-8.9383,-8.9264,-8.9251,-8.9472,-8.9498,-8.9524,-8.9852,-8.9584,-8.96,-8.9609,-9.032,-9.0331,-9.0341,0,0,0,0,0,0,-8.8829,-8.8867,-8.9247,-8.9142,-8.9144,-8.9116,-8.9139,-8.9326,-8.9375,-8.9235,-8.9228,-8.9257,-8.9431,-8.9497,-8.9517,-8.981,-8.9566,-8.9581,-8.9592,-8.9598,-9.0329,-9.0338,0,0,0,0,0,0,-8.8845,-8.8877,-8.9139,-8.914,-8.9141,-8.9297,-8.9281,-8.9523,-8.9289,-8.9231,-8.9268,-8.9258,-8.9432,-8.9452,-8.9513,-8.9797,-8.9806,-8.9567,-8.9577,-8.9584,-8.9589,0,0,0,0,0,0,0,-8.8858,-8.8644,-8.9157,-8.9139,-8.9139,-8.9382,-8.9386,-8.939,-8.9287,-8.9278,-8.927,-8.9262,-8.9482,-8.9498,-8.9514,-8.9787,0,0,-8.9565,-8.9573,0,0,0,0,0,0,0,0,-8.863,-8.8641,-8.9158,-8.9161,-8.9164,-8.9383,-8.9386,-8.9389,-8.9285,-8.9279,-8.9272,-8.9265,-8.9486,-8.9499,-8.9513,0,0,0,0,0,0,0,0,0,0,0,0,0,0,0,-8.9158,-8.9161,0,-8.9383,-8.9386,-8.9388,-8.9284,-8.9279,-8.9273,-8.9268,-8.949,-8.95,-8.9511,0,0,0,0,0,0,0,0,0,0,0,0,0,0,0,0,0,0,0,0,0,0,0,0,0,0,0,0,0,0,0,0,0,0,0,0,0,0,0,0,0,0,0,0,0,0,0,0,0,0,0,0,0,0,0,0,0,0,0,0,0,0,0,0,0,0,0,0,0]}]]]